| time (UTC) | temp F | wind direction | speed MPH | gust MPH | rain 1hr in | rain 24hr in | rain mn in | humidity % | barometer mb |
| 20260901221545 | 72 | 283 | 4.0 | 13.0 | 0.00 | 0.00 | 0.00 | 46 | 1014.7 |
| 20260901220013 | 73 | 187 | 5.0 | 12.0 | 0.00 | 0.00 | 0.00 | 46 | 1014.8 |
| 20260901214511 | 73 | 262 | 7.0 | 13.0 | 0.00 | 0.00 | 0.00 | 45 | 1014.9 |
| 20260901213018 | 72 | 166 | 3.0 | 10.0 | 0.00 | 0.00 | 0.00 | 48 | 1014.8 |
| 20260901211513 | 71 | 212 | 6.0 | 13.0 | 0.00 | 0.00 | 0.00 | 48 | 1014.9 |
| 20260901210006 | 71 | 239 | 3.0 | 13.0 | 0.00 | 0.00 | 0.00 | 49 | 1014.8 |
| 20260901204512 | 71 | 260 | 5.0 | 17.0 | 0.00 | 0.00 | 0.00 | 49 | 1015.1 |
| 20260901203003 | 71 | 205 | 6.0 | 13.0 | 0.00 | 0.00 | 0.00 | 49 | 1015.1 |
| 20260901201502 | 71 | 203 | 4.0 | 14.0 | 0.00 | 0.00 | 0.00 | 50 | 1015.4 |
| 20260901200118 | 70 | 144 | 6.0 | 12.0 | 0.00 | 0.00 | 0.00 | 50 | 1015.4 |
| 20260901194609 | 71 | 186 | 4.0 | 11.0 | 0.00 | 0.00 | 0.00 | 46 | 1015.4 |
| 20260901193055 | 71 | 187 | 5.0 | 9.0 | 0.00 | 0.00 | 0.00 | 47 | 1015.5 |
| 20260901191630 | 70 | 152 | 4.0 | 9.0 | 0.00 | 0.00 | 0.00 | 50 | 1015.6 |
| 20260901190059 | 70 | 238 | 5.0 | 10.0 | 0.00 | 0.00 | 0.00 | 50 | 1015.8 |
| 20260901184546 | 68 | 205 | 3.0 | 9.0 | 0.00 | 0.00 | 0.00 | 51 | 1016.0 |
| 20260901183052 | 68 | 263 | 4.0 | 16.0 | 0.00 | 0.00 | 0.00 | 52 | 1016.0 |
| 20260901181551 | 68 | 169 | 2.0 | 10.0 | 0.00 | 0.00 | 0.00 | 55 | 1016.0 |
| 20260901180040 | 66 | 197 | 4.0 | 9.0 | 0.00 | 0.00 | 0.00 | 54 | 1016.1 |
| 20260901174540 | 66 | 155 | 2.0 | 10.0 | 0.00 | 0.00 | 0.00 | 56 | 1015.8 |
| 20260901173034 | 65 | 204 | 4.0 | 11.0 | 0.00 | 0.00 | 0.00 | 58 | 1015.8 |
| 20260901171536 | 65 | 200 | 6.0 | 12.0 | 0.00 | 0.00 | 0.00 | 58 | 1015.6 |
| 20260901170031 | 65 | 188 | 4.0 | 9.0 | 0.00 | 0.00 | 0.00 | 60 | 1015.5 |
| 20260901164529 | 64 | 198 | 3.0 | 10.0 | 0.00 | 0.00 | 0.00 | 61 | 1015.6 |
| 20260901163032 | 64 | 170 | 5.0 | 12.0 | 0.00 | 0.00 | 0.00 | 62 | 1015.6 |
| 20260901161529 | 63 | 214 | 6.0 | 14.0 | 0.00 | 0.00 | 0.00 | 63 | 1015.5 |
| 20260901160021 | 63 | 184 | 5.0 | 13.0 | 0.00 | 0.00 | 0.00 | 65 | 1015.3 |
| 20260901154518 | 62 | 175 | 4.0 | 10.0 | 0.00 | 0.00 | 0.00 | 66 | 1015.1 |
| 20260901153020 | 62 | 203 | 4.0 | 10.0 | 0.00 | 0.00 | 0.00 | 67 | 1015.1 |
| 20260901151528 | 61 | 228 | 2.0 | 12.0 | 0.00 | 0.00 | 0.00 | 68 | 1014.9 |
| 20260901150013 | 60 | 198 | 4.0 | 9.0 | 0.00 | 0.00 | 0.00 | 69 | 1014.8 |
| 20260901144507 | 60 | 214 | 5.0 | 0.0 | 0.00 | 0.00 | 0.00 | 69 | 1014.7 |
| 20260901143004 | 60 | 181 | 5.0 | 10.0 | 0.00 | 0.00 | 0.00 | 70 | 1014.5 |
| 20260901141617 | 59 | 242 | 4.0 | 9.0 | 0.00 | 0.00 | 0.00 | 71 | 1014.2 |
| 20260901140132 | 59 | 204 | 2.0 | 8.0 | 0.00 | 0.00 | 0.00 | 73 | 1014.1 |
| 20260901134553 | 59 | 224 | 3.0 | 6.0 | 0.00 | 0.00 | 0.00 | 73 | 1013.9 |
| 20260901133052 | 59 | 212 | 2.0 | 7.0 | 0.00 | 0.00 | 0.00 | 73 | 1013.7 |
| 20260901131553 | 58 | 207 | 1.0 | 7.0 | 0.00 | 0.00 | 0.00 | 73 | 1013.7 |
| 20260901130051 | 58 | 201 | 3.0 | 7.0 | 0.00 | 0.00 | 0.00 | 74 | 1013.6 |
| 20260901124553 | 59 | 222 | 2.0 | 7.0 | 0.00 | 0.00 | 0.00 | 74 | 1013.6 |
| 20260901123049 | 59 | 149 | 3.0 | 9.0 | 0.00 | 0.00 | 0.00 | 74 | 1013.5 |
| 20260901121548 | 59 | 214 | 6.0 | 11.0 | 0.00 | 0.00 | 0.00 | 74 | 1013.3 |
| 20260901120046 | 59 | 232 | 4.0 | 10.0 | 0.00 | 0.00 | 0.00 | 74 | 1013.3 |
| 20260901114545 | 59 | 195 | 3.0 | 9.0 | 0.00 | 0.00 | 0.00 | 74 | 1013.4 |
| 20260901113044 | 59 | 238 | 5.0 | 11.0 | 0.00 | 0.00 | 0.00 | 74 | 1013.5 |
| 20260901111543 | 59 | 166 | 5.0 | 12.0 | 0.00 | 0.00 | 0.00 | 74 | 1013.5 |
| 20260901110042 | 58 | 215 | 3.0 | 12.0 | 0.00 | 0.00 | 0.00 | 75 | 1013.3 |
| 20260901104543 | 58 | 216 | 3.0 | 9.0 | 0.00 | 0.00 | 0.00 | 76 | 1013.5 |
| 20260901103040 | 58 | 201 | 4.0 | 9.0 | 0.00 | 0.00 | 0.00 | 77 | 1013.3 |
| 20260901101555 | 58 | 217 | 5.0 | 12.0 | 0.00 | 0.00 | 0.00 | 75 | 1013.1 |
| 20260901100042 | 58 | 228 | 6.0 | 17.0 | 0.00 | 0.00 | 0.00 | 74 | 1013.2 |
| 20260901094537 | 58 | 204 | 5.0 | 11.0 | 0.00 | 0.00 | 0.00 | 76 | 1013.1 |
| 20260901093024 | 58 | 218 | 5.0 | 9.0 | 0.00 | 0.00 | 0.00 | 77 | 1013.3 |
| 20260901091531 | 58 | 197 | 3.0 | 9.0 | 0.00 | 0.00 | 0.00 | 78 | 1013.3 |
| 20260901090020 | 57 | 218 | 3.0 | 8.0 | 0.00 | 0.00 | 0.00 | 78 | 1013.3 |
| 20260901084533 | 57 | 217 | 4.0 | 8.0 | 0.00 | 0.00 | 0.00 | 79 | 1013.4 |
| 20260901083017 | 57 | 204 | 3.0 | 6.0 | 0.00 | 0.00 | 0.00 | 79 | 1013.5 |
| 20260901081515 | 57 | 196 | 2.0 | 5.0 | 0.00 | 0.00 | 0.00 | 79 | 1013.6 |
| 20260901080027 | 57 | 226 | 2.0 | 5.0 | 0.00 | 0.00 | 0.00 | 80 | 1013.5 |
| 20260901074510 | 57 | 197 | 3.0 | 7.0 | 0.00 | 0.00 | 0.00 | 80 | 1013.4 |
| 20260901073011 | 57 | 239 | 3.0 | 9.0 | 0.00 | 0.00 | 0.00 | 80 | 1013.5 |
| 20260901071506 | 57 | 194 | 3.0 | 9.0 | 0.00 | 0.00 | 0.00 | 80 | 1013.3 |
| 20260901070004 | 57 | 155 | 6.0 | 13.0 | 0.00 | 0.00 | 0.00 | 80 | 1013.3 |
| 20260901064503 | 57 | 214 | 5.0 | 10.0 | 0.00 | 0.00 | 0.00 | 80 | 1013.4 |
| 20260901063106 | 57 | 183 | 6.0 | 11.0 | 0.00 | 0.00 | 0.00 | 80 | 1013.4 |
| 20260901061609 | 57 | 200 | 5.0 | 9.0 | 0.00 | 0.00 | 0.00 | 81 | 1013.3 |
| 20260901060059 | 57 | 173 | 6.0 | 11.0 | 0.00 | 0.00 | 0.00 | 80 | 1013.4 |
| 20260901054557 | 57 | 194 | 5.0 | 11.0 | 0.00 | 0.00 | 0.00 | 80 | 1013.4 |
| 20260901053108 | 57 | 193 | 6.0 | 10.0 | 0.00 | 0.00 | 0.00 | 81 | 1013.3 |
| 20260901051556 | 57 | 200 | 7.0 | 12.0 | 0.00 | 0.00 | 0.00 | 81 | 1013.1 |
| 20260901050055 | 57 | 210 | 6.0 | 14.0 | 0.00 | 0.00 | 0.00 | 80 | 1013.1 |
| 20260901044611 | 57 | 197 | 6.0 | 11.0 | 0.00 | 0.00 | 0.00 | 80 | 1013.1 |
| 20260901043053 | 57 | 184 | 5.0 | 12.0 | 0.00 | 0.00 | 0.00 | 80 | 1013.0 |
| 20260901041552 | 57 | 194 | 6.0 | 11.0 | 0.00 | 0.00 | 0.00 | 80 | 1012.9 |
| 20260901040100 | 58 | 155 | 5.0 | 12.0 | 0.00 | 0.00 | 0.00 | 79 | 1012.8 |
| 20260901034552 | 58 | 207 | 8.0 | 14.0 | 0.00 | 0.00 | 0.00 | 79 | 1012.7 |
| 20260901033051 | 58 | 190 | 8.0 | 14.0 | 0.00 | 0.00 | 0.00 | 79 | 1012.5 |
| 20260901031550 | 59 | 156 | 8.0 | 14.0 | 0.00 | 0.00 | 0.00 | 79 | 1012.3 |
| 20260901030049 | 59 | 181 | 9.0 | 15.0 | 0.00 | 0.00 | 0.00 | 78 | 1012.1 |
| 20260901024558 | 59 | 154 | 9.0 | 14.0 | 0.00 | 0.00 | 0.00 | 77 | 1012.1 |
| 20260901023049 | 60 | 203 | 9.0 | 17.0 | 0.00 | 0.00 | 0.00 | 76 | 1012.0 |
| 20260901021604 | 61 | 186 | 8.0 | 16.0 | 0.00 | 0.00 | 0.00 | 75 | 1011.9 |
| 20260901020049 | 61 | 200 | 8.0 | 19.0 | 0.00 | 0.00 | 0.00 | 73 | 1011.8 |
| 20260901014543 | 62 | 212 | 9.0 | 18.0 | 0.00 | 0.00 | 0.00 | 72 | 1011.9 |
| 20260901013042 | 63 | 186 | 10.0 | 20.0 | 0.00 | 0.00 | 0.00 | 71 | 1011.8 |
| 20260901011542 | 64 | 204 | 8.0 | 17.0 | 0.00 | 0.00 | 0.00 | 68 | 1011.8 |
| 20260901010042 | 65 | 195 | 11.0 | 21.0 | 0.00 | 0.00 | 0.00 | 66 | 1011.7 |
| 20260901004539 | 66 | 236 | 7.0 | 19.0 | 0.00 | 0.00 | 0.00 | 65 | 1011.5 |
| 20260901003039 | 67 | 187 | 6.0 | 16.0 | 0.00 | 0.00 | 0.00 | 66 | 1011.6 |
| 20260901001541 | 67 | 243 | 7.0 | 17.0 | 0.00 | 0.00 | 0.00 | 64 | 1011.7 |
| 20260901000039 | 68 | 255 | 6.0 | 18.0 | 0.00 | 0.00 | 0.00 | 63 | 1011.8 |
| 20260831234537 | 69 | 245 | 7.0 | 17.0 | 0.00 | 0.00 | 0.00 | 61 | 1011.8 |
| 20260831233036 | 69 | 195 | 7.0 | 18.0 | 0.00 | 0.00 | 0.00 | 60 | 1011.8 |
| 20260831231554 | 69 | 217 | 6.0 | 17.0 | 0.00 | 0.00 | 0.00 | 60 | 1011.9 |
| 20260831230038 | 69 | 173 | 5.0 | 14.0 | 0.00 | 0.00 | 0.00 | 60 | 1011.9 |
| 20260831224549 | 69 | 211 | 5.0 | 17.0 | 0.00 | 0.00 | 0.00 | 61 | 1012.0 |
| 20260831223033 | 68 | 232 | 9.0 | 18.0 | 0.00 | 0.00 | 0.00 | 61 | 1012.1 |